Tracking 31027 objects as of 19-Jul-2025
HD Live streaming from Space Station
objects crossing your sky now

SL-8 DEB *

Track SL-8 DEB * now!
10-day predictions


NORAD ID: 3743
Int'l Code: 1965-020ES
Perigee: 1,388.5 km
Apogee: 1,805.0 km
Inclination: 56.7 °
Period: 118.0 minutes
Semi major axis: 7967 km
RCS: 0.0769 m2 (small)
Launch date: March 15, 1965
Source: Commonwealth of Independent States (former USSR) (CIS)
Launch site: TYURATAM MISSILE AND SPACE COMPLEX (TTMTR)

Note: This is SATELLITE DEBRIS
Your satellite tracking list
FENGYUN 1C DEB
Track 1 satellite(s)




NASA's NSSDC Master Catalog

Two Line Element Set (TLE):
1 03743U 65020ES  25199.53387510 -.00000151  00000-0 -54626-3 0  9993
2 03743  56.6623  22.2256 0261356  28.7191   5.2290 12.20678596533417
Source of the keplerian elements: AFSPC